San Diego, CA

12:09 AM PST on February 08, 2016 (GMT -0800)
San Diego International-Lindbergh

Weather History for KSAN - April, 2014

Change the Weather History Date:

Sunday, April 27, 2014

  Actual Average Record
Temperature  
Mean Temperature 63 °F 63 °F  
Max Temperature 67 °F 68 °F 94 °F (2008)
Min Temperature 59 °F 57 °F 45 °F (1883)
Degree Days  
Heating Degree Days 2 3  
Month to date heating degree days 40 104  
Since 1 July heating degree days 536 1140  
Cooling Degree Days 0 1  
Month to date cooling degree days 28 9  
Year to date cooling degree days 57 19  
Growing Degree Days 12 (Base 50)    
Moisture  
Dew Point 49 °F    
Average Humidity 58    
Maximum Humidity 64    
Minimum Humidity 52    
Precipitation  
Precipitation 0.00 in 0.01 in 0.80 in (1885)
Month to date precipitation 0.53 0.73  
Year to date precipitation 2.82 6.79  
Since 1 July precipitation 5.06  
Snow  
Snow 0.00 in - - ()
Month to date snowfall 0.0  
Year to date snowfall 0.0  
Since 1 July snowfall 0.0  
Snow Depth 0.00 in    
Sea Level Pressure  
Sea Level Pressure 30.02 in    
Wind  
Wind Speed 8 mph (WSW)    
Max Wind Speed 14 mph    
Max Gust Speed 18 mph    
Visibility 10 miles    
Events      
T = Trace of Precipitation, MM = Missing Value Source: NWS Daily Summary

Daily Weather History Graph

Daily Weather History Graph

Search for Another Location

Airport or City:

Trip Planner

Search our weather history database for the weather conditions in past years. The results will help you decide how hot, cold, wet, or windy it might be!

Date:

Astronomy

Apr. 27, 2014 Rise Set
Actual Time 6:05 AM PDT 7:27 PM PDT
Civil Twilight 5:39 AM PDT 7:53 PM PDT
Nautical Twilight 5:08 AM PDT 8:24 PM PDT
Astronomical Twilight 4:36 AM PDT 8:57 PM PDT
Moon 5:02 AM PDT (4/27) 6:10 PM PDT (4/27)
Length of Visible Light 14h 13m
Length of Day
13h 21m
Waning Crescent, 3% of the Moon is Illuminated
Apr 27
Waning Crescent
Apr 28
New
May 6
First Quarter
May 14
Full
May 21
Last Quarter

Hourly Weather History & Observations

Time (PDT) Temp. Dew Point Humidity Pressure Visibility Wind Dir Wind Speed Gust Speed Precip Events Conditions
12:51 AM 60.1 °F 46.9 °F 62% 30.04 in 10.0 mi West 4.6 mph - N/A   Partly Cloudy
1:51 AM 60.1 °F 46.9 °F 62% 30.01 in 10.0 mi SW 4.6 mph - N/A   Partly Cloudy
2:51 AM 59.0 °F 46.9 °F 64% 29.99 in 10.0 mi SSW 5.8 mph - N/A   Scattered Clouds
3:51 AM 59.0 °F 46.9 °F 64% 30.00 in 10.0 mi SSW 8.1 mph - N/A   Overcast
4:51 AM 60.1 °F 46.0 °F 60% 29.99 in 10.0 mi SW 5.8 mph - N/A   Overcast
5:01 AM 59.0 °F 46.4 °F 63% 29.98 in 10.0 mi SW 6.9 mph - N/A   Overcast
5:51 AM 59.0 °F 46.0 °F 62% 29.99 in 10.0 mi SSW 6.9 mph - N/A   Overcast
6:51 AM 60.1 °F 48.0 °F 64% 30.00 in 10.0 mi South 9.2 mph - N/A   Overcast
7:51 AM 60.1 °F 48.0 °F 64% 30.03 in 10.0 mi South 8.1 mph - N/A   Mostly Cloudy
8:51 AM 61.0 °F 46.9 °F 60% 30.05 in 10.0 mi SSW 8.1 mph - N/A   Mostly Cloudy
9:51 AM 62.1 °F 48.0 °F 60% 30.04 in 10.0 mi South 8.1 mph - N/A   Mostly Cloudy
10:51 AM 63.0 °F 48.0 °F 58% 30.05 in 10.0 mi South 8.1 mph - N/A   Scattered Clouds
11:51 AM 64.9 °F 46.9 °F 52% 30.04 in 10.0 mi South 9.2 mph - N/A   Scattered Clouds
12:51 PM 64.9 °F 48.0 °F 54% 30.02 in 10.0 mi SW 6.9 mph - N/A   Partly Cloudy
1:51 PM 64.9 °F 48.0 °F 54% 30.02 in 10.0 mi WSW 10.4 mph - N/A   Partly Cloudy
2:51 PM 66.0 °F 48.0 °F 52% 30.01 in 10.0 mi West 8.1 mph - N/A   Scattered Clouds
3:51 PM 66.9 °F 48.9 °F 52% 29.99 in 10.0 mi NW 9.2 mph - N/A   Scattered Clouds
4:51 PM 66.9 °F 50.0 °F 54% 29.99 in 10.0 mi WNW 11.5 mph - N/A   Scattered Clouds
5:51 PM 66.0 °F 50.0 °F 56% 29.99 in 10.0 mi WNW 11.5 mph - N/A   Scattered Clouds
6:51 PM 64.0 °F 51.1 °F 63% 30.00 in 10.0 mi NNW 13.8 mph - N/A   Scattered Clouds
7:51 PM 63.0 °F 50.0 °F 63% 30.01 in 10.0 mi WNW 9.2 mph - N/A   Partly Cloudy
8:51 PM 62.1 °F 51.1 °F 67% 30.03 in 10.0 mi NW 5.8 mph - N/A   Partly Cloudy
9:51 PM 62.1 °F 52.0 °F 70% 30.04 in 10.0 mi North 3.5 mph - N/A   Partly Cloudy
10:51 PM 62.1 °F 53.1 °F 72% 30.05 in 10.0 mi Calm Calm - N/A   Partly Cloudy
11:51 PM 61.0 °F 52.0 °F 72% 30.03 in 10.0 mi Calm Calm - N/A   Clear